Total_Precipitation_Accumulation
0.51 0.50 0.48 0.45 0.41 0.39 0.38 0.35 0.31 0.26 0.20 0.18 0.16 0.14 0.13 0.13 0.13 0.15 0.15 0.14 0.14 0.13 0.12 0.12 0.12 0.13 0.14 0.14 0.17 0.22 0.26 0.34 0.36 0.18 0.12 0.17 0.25 0.30 0.35 0.35 0.32 0.30 0.25
0.43 0.40 0.37 0.33 0.30 0.27 0.26 0.25 0.22 0.20 0.18 0.17 0.16 0.16 0.14 0.13 0.12 0.14 0.13 0.12 0.12 0.11 0.11 0.11 0.10 0.11 0.13 0.14 0.17 0.20 0.24 0.30 0.38 0.30 0.19 0.22 0.29 0.38 0.46 0.47 0.41 0.36 0.33
0.25 0.23 0.23 0.24 0.23 0.23 0.22 0.20 0.19 0.18 0.17 0.17 0.16 0.15 0.13 0.12 0.13 0.13 0.12 0.10 0.10 0.10 0.10 0.12 0.12 0.13 0.15 0.18 0.23 0.24 0.27 0.29 0.41 0.48 0.37 0.32 0.35 0.45 0.58 0.57 0.47 0.48 0.37
0.17 0.16 0.16 0.17 0.18 0.19 0.18 0.17 0.16 0.15 0.15 0.14 0.12 0.11 0.12 0.11 0.09 0.07 0.06 0.07 0.07 0.07 0.09 0.11 0.13 0.17 0.21 0.24 0.25 0.28 0.35 0.40 0.42 0.47 0.44 0.41 0.44 0.51 0.65 0.71 0.58 0.50 0.41
0.15 0.15 0.16 0.16 0.16 0.17 0.17 0.17 0.16 0.14 0.12 0.10 0.09 0.09 0.10 0.08 0.04 0.03 0.03 0.03 0.05 0.07 0.09 0.12 0.13 0.16 0.21 0.25 0.27 0.34 0.46 0.53 0.50 0.50 0.49 0.48 0.51 0.61 0.67 0.68 0.62 0.49 0.35
0.23 0.22 0.20 0.17 0.16 0.16 0.16 0.16 0.15 0.13 0.11 0.09 0.07 0.06 0.06 0.03 0.02 0.01 0.01 0.02 0.05 0.10 0.14 0.13 0.10 0.10 0.12 0.17 0.25 0.33 0.43 0.52 0.58 0.62 0.61 0.56 0.53 0.61 0.65 0.67 0.65 0.60 0.45
0.29 0.24 0.20 0.16 0.15 0.15 0.13 0.13 0.12 0.10 0.08 0.06 0.05 0.05 0.06 0.03 0.00 0.00 0.00 0.01 0.07 0.14 0.17 0.15 0.10 0.08 0.14 0.19 0.22 0.24 0.32 0.44 0.61 0.74 0.74 0.61 0.62 0.70 0.78 0.78 0.66 0.64 0.59
0.23 0.20 0.16 0.14 0.13 0.12 0.10 0.09 0.07 0.06 0.06 0.06 0.06 0.05 0.07 0.04 0.00 0.00 0.00 0.03 0.09 0.12 0.13 0.13 0.15 0.18 0.18 0.16 0.18 0.26 0.41 0.54 0.59 0.61 0.70 0.70 0.73 0.70 0.67 0.66 0.60 0.62 0.52
0.16 0.14 0.12 0.10 0.07 0.06 0.06 0.06 0.06 0.06 0.07 0.05 0.04 0.05 0.08 0.06 0.01 0.00 0.00 0.03 0.06 0.08 0.09 0.11 0.14 0.19 0.17 0.21 0.29 0.44 0.63 0.82 0.76 0.71 0.74 0.85 0.88 0.74 0.57 0.54 0.65 0.71 0.56
0.12 0.09 0.07 0.05 0.05 0.05 0.06 0.07 0.07 0.07 0.06 0.05 0.04 0.06 0.08 0.09 0.02 0.00 0.00 0.03 0.05 0.06 0.10 0.14 0.17 0.20 0.20 0.32 0.41 0.60 0.83 0.96 0.84 0.77 0.86 0.99 0.93 0.84 0.76 0.73 0.76 0.72 0.61
0.05 0.04 0.04 0.03 0.03 0.03 0.05 0.07 0.07 0.07 0.08 0.07 0.07 0.08 0.09 0.06 0.03 0.00 0.01 0.03 0.04 0.08 0.15 0.23 0.28 0.28 0.27 0.39 0.56 0.72 0.97 1.01 0.88 0.80 0.79 0.80 0.78 0.75 0.71 0.74 0.70 0.64 0.59
0.02 0.03 0.03 0.02 0.01 0.02 0.05 0.08 0.08 0.09 0.09 0.08 0.08 0.09 0.09 0.08 0.05 0.01 0.00 0.01 0.03 0.11 0.25 0.33 0.34 0.32 0.35 0.52 0.67 0.87 1.11 1.20 1.00 0.81 0.67 0.60 0.58 0.61 0.61 0.55 0.51 0.49 0.50
0.03 0.04 0.04 0.03 0.03 0.03 0.04 0.07 0.07 0.08 0.08 0.07 0.08 0.07 0.08 0.10 0.08 0.01 0.01 0.02 0.04 0.11 0.27 0.40 0.41 0.38 0.54 0.81 0.99 1.10 1.27 1.29 1.05 0.77 0.64 0.56 0.50 0.48 0.49 0.48 0.45 0.41 0.41
0.06 0.05 0.06 0.07 0.07 0.06 0.06 0.04 0.04 0.06 0.06 0.07 0.08 0.09 0.10 0.12 0.08 0.04 0.04 0.06 0.09 0.13 0.22 0.38 0.51 0.57 0.74 1.02 1.22 1.32 1.36 1.26 1.00 0.79 0.65 0.57 0.50 0.46 0.46 0.42 0.41 0.38 0.39
0.06 0.06 0.07 0.06 0.06 0.07 0.07 0.03 0.02 0.03 0.02 0.03 0.06 0.08 0.10 0.10 0.06 0.06 0.08 0.10 0.13 0.17 0.22 0.35 0.52 0.63 0.83 1.04 1.17 1.20 1.16 1.08 0.97 0.79 0.66 0.59 0.55 0.51 0.49 0.45 0.42 0.37 0.40
0.06 0.05 0.05 0.04 0.04 0.04 0.07 0.07 0.02 0.01 0.01 0.01 0.03 0.05 0.06 0.06 0.05 0.05 0.07 0.12 0.16 0.22 0.29 0.44 0.59 0.70 0.85 0.98 1.05 1.04 0.97 0.89 0.80 0.72 0.65 0.60 0.56 0.52 0.50 0.43 0.37 0.36 0.41
0.04 0.04 0.03 0.03 0.02 0.03 0.05 0.09 0.12 0.07 0.03 0.02 0.02 0.03 0.04 0.04 0.04 0.04 0.07 0.12 0.15 0.22 0.34 0.51 0.66 0.78 0.89 0.94 0.95 0.91 0.86 0.81 0.70 0.63 0.59 0.55 0.49 0.46 0.43 0.38 0.33 0.34 0.35
0.03 0.02 0.02 0.02 0.02 0.03 0.03 0.04 0.08 0.13 0.14 0.13 0.06 0.03 0.04 0.04 0.06 0.06 0.08 0.12 0.18 0.24 0.38 0.54 0.65 0.72 0.80 0.85 0.82 0.81 0.76 0.69 0.61 0.56 0.55 0.52 0.45 0.39 0.36 0.33 0.31 0.27 0.26
0.02 0.03 0.01 0.01 0.01 0.01 0.02 0.02 0.04 0.07 0.11 0.14 0.13 0.09 0.06 0.08 0.10 0.13 0.14 0.17 0.25 0.32 0.40 0.50 0.57 0.62 0.67 0.70 0.68 0.65 0.63 0.59 0.52 0.47 0.47 0.47 0.45 0.39 0.32 0.26 0.22 0.17 0.18
0.01 0.01 0.00 0.00 0.00 0.01 0.01 0.02 0.04 0.06 0.09 0.12 0.13 0.12 0.12 0.19 0.23 0.23 0.19 0.19 0.24 0.32 0.39 0.47 0.50 0.49 0.49 0.51 0.49 0.45 0.45 0.45 0.42 0.41 0.41 0.39 0.38 0.32 0.26 0.21 0.18 0.15 0.15
0.01 0.01 0.00 0.00 0.00 0.00 0.01 0.02 0.03 0.05 0.08 0.11 0.12 0.11 0.18 0.24 0.31 0.29 0.27 0.27 0.30 0.33 0.35 0.38 0.40 0.41 0.37 0.34 0.34 0.33 0.34 0.35 0.35 0.36 0.35 0.34 0.31 0.26 0.20 0.15 0.12 0.10 0.09
0.00 0.00 0.00 0.00 0.00 0.00 0.00 0.02 0.03 0.04 0.06 0.10 0.10 0.10 0.18 0.24 0.31 0.32 0.33 0.34 0.36 0.36 0.35 0.33 0.32 0.33 0.34 0.32 0.29 0.28 0.29 0.30 0.32 0.33 0.31 0.28 0.25 0.20 0.15 0.11 0.08 0.06 0.06
0.00 0.00 0.00 0.00 0.00 0.00 0.00 0.01 0.02 0.03 0.04 0.06 0.07 0.09 0.14 0.23 0.30 0.35 0.39 0.39 0.38 0.36 0.31 0.28 0.29 0.31 0.30 0.27 0.25 0.24 0.24 0.25 0.28 0.30 0.30 0.26 0.21 0.17 0.12 0.09 0.06 0.05 0.03
0.00 0.00 0.00 0.00 0.00 0.00 0.00 0.01 0.01 0.02 0.02 0.04 0.05 0.08 0.12 0.19 0.25 0.33 0.39 0.42 0.44 0.42 0.37 0.33 0.31 0.30 0.27 0.24 0.24 0.22 0.18 0.19 0.22 0.25 0.26 0.22 0.16 0.12 0.09 0.07 0.05 0.04 0.03
0.00 0.00 0.00 0.00 0.00 0.00 0.00 0.01 0.01 0.01 0.01 0.02 0.03 0.05 0.07 0.12 0.18 0.24 0.31 0.36 0.41 0.45 0.45 0.42 0.38 0.32 0.26 0.21 0.17 0.14 0.16 0.19 0.17 0.17 0.22 0.19 0.12 0.08 0.07 0.06 0.05 0.04 0.04
0.00 0.00 0.00 0.00 0.00 0.00 0.00 0.01 0.01 0.00 0.01 0.01 0.02 0.03 0.05 0.09 0.13 0.17 0.20 0.22 0.26 0.33 0.39 0.44 0.43 0.33 0.24 0.19 0.17 0.16 0.15 0.10 0.07 0.07 0.16 0.17 0.11 0.08 0.07 0.06 0.05 0.04 0.04